Wind_Speed
53 54 37 31 36 27 26 24 25 23 24 20 21 23 25 26 23 15 10 9 9 10 10 14 19 26 33 40 39 39 36 42 51
55 43 36 31 30 27 28 26 26 24 25 25 23 24 25 18 15 12 8 8 7 9 10 13 19 24 29 38 42 40 39 41 43
57 41 35 28 30 28 28 26 26 25 25 25 20 18 14 12 13 11 9 8 6 8 9 12 18 23 28 33 41 40 41 41 43
52 43 35 31 30 28 28 28 27 28 25 24 18 15 14 12 13 11 9 8 7 9 10 13 17 21 26 31 36 44 40 43 43
39 39 38 36 33 29 30 30 28 30 25 23 18 16 15 13 13 12 10 8 8 8 11 13 16 21 24 28 32 43 46 42 45
39 39 41 35 37 33 32 31 29 30 28 26 20 18 16 14 14 12 12 9 9 9 10 11 15 20 24 25 30 35 43 48 45
41 43 43 40 37 36 34 33 31 32 32 28 24 21 18 16 16 13 13 11 10 9 9 10 15 18 21 24 28 32 37 45 50
44 46 45 39 37 36 36 35 34 35 35 31 27 23 20 18 17 15 15 13 12 10 8 10 13 17 19 22 27 30 36 39 46
47 49 48 45 38 37 38 37 36 37 36 32 29 26 23 20 19 18 16 15 14 12 9 10 12 16 18 21 25 28 33 38 41
49 51 50 46 43 38 39 39 36 39 37 35 31 29 26 22 20 20 17 16 16 15 10 9 11 14 17 20 23 26 31 34 39
51 53 53 48 44 40 39 41 38 41 39 36 34 31 28 25 22 21 19 17 17 17 11 11 11 12 16 19 21 24 27 32 35
51 55 54 48 46 41 38 41 41 42 42 38 36 34 31 27 25 23 21 19 18 19 16 12 12 13 14 18 18 21 24 29 31
51 56 55 49 46 43 39 41 42 42 45 40 38 36 34 29 28 25 22 21 20 20 20 15 12 15 16 16 17 19 20 25 28
52 56 58 51 47 45 41 41 44 43 46 43 39 38 36 32 29 26 24 22 22 20 21 18 15 14 17 15 16 18 19 21 25
55 56 57 52 48 45 40 40 45 44 46 48 41 39 38 36 30 29 27 25 24 22 22 21 19 17 16 17 16 16 18 20 22
54 58 58 54 50 47 41 38 43 46 46 50 47 41 39 38 34 31 29 27 26 25 24 23 22 21 20 15 17 16 16 18 21
56 60 60 55 50 51 43 41 42 48 46 49 51 43 41 40 38 34 32 29 28 27 26 25 25 23 22 16 15 17 17 18 19
55 60 60 55 49 50 47 44 41 47 48 48 50 50 40 43 41 38 35 33 32 30 28 28 26 25 23 22 17 15 18 20 19
57 60 63 58 56 52 52 47 45 43 49 50 49 53 41 38 43 42 38 37 34 34 33 30 29 28 26 24 22 15 19 20 21
59 59 63 62 59 57 55 53 49 50 47 50 51 54 49 37 41 46 44 40 38 37 35 34 32 30 29 27 26 22 18 23 23
Wind_Direction
296 297 300 288 304 281 299 257 247 244 256 250 249 257 271 284 290 292 294 311 330 349 357 352 1 8 13 16 17 20 18 25 34
293 295 293 295 288 278 291 255 243 241 248 252 253 262 270 278 283 283 283 299 321 337 352 352 359 2 12 15 20 20 22 25 27
285 280 282 283 275 266 273 252 241 240 247 250 247 256 257 264 276 274 276 285 297 324 338 351 357 360 11 15 18 20 22 24 25
274 275 268 271 267 265 262 254 242 239 245 248 246 245 249 258 266 267 276 281 277 314 328 340 352 359 8 15 18 25 25 25 25
265 269 257 264 256 263 261 250 241 237 244 245 240 236 245 250 261 266 273 276 264 301 322 341 349 356 1 8 15 24 26 26 25
263 260 250 252 252 257 255 243 240 235 238 241 237 235 240 245 257 261 270 272 263 279 311 335 343 352 359 7 11 15 23 28 25
261 247 245 248 252 251 251 239 236 232 235 236 235 235 237 240 251 256 263 267 260 273 299 323 336 347 355 5 8 13 20 25 28
247 241 242 243 248 246 246 239 234 230 232 235 234 234 236 237 246 250 259 263 259 268 285 316 334 343 350 358 3 9 17 23 25
244 240 240 241 245 247 243 237 233 228 229 234 233 233 235 233 240 244 252 258 259 262 277 297 328 335 346 352 358 7 14 16 21
248 239 236 241 241 247 241 237 232 229 227 233 232 232 235 235 237 244 248 254 258 260 271 297 317 334 339 348 355 4 8 10 14
245 236 234 240 241 244 241 236 231 228 225 232 234 232 235 236 234 240 246 252 256 257 271 281 305 326 331 341 345 356 4 9 12
239 234 231 237 240 241 242 236 232 228 224 230 233 231 234 238 236 237 244 247 255 256 265 273 293 313 326 334 339 349 360 4 11
235 232 229 234 239 237 242 236 233 231 225 229 233 232 234 237 239 236 241 245 250 256 260 271 278 294 309 321 328 338 356 1 8
233 234 228 231 235 235 242 233 234 234 227 226 233 231 232 237 239 239 239 242 248 253 255 267 275 275 300 311 317 326 342 353 3
231 233 228 228 233 234 240 233 235 234 231 227 231 231 231 234 238 239 239 240 244 251 252 260 270 271 287 297 303 318 333 347 357
228 228 226 230 232 231 234 236 234 232 232 230 229 232 230 233 234 239 238 239 244 248 251 256 267 272 281 286 292 303 322 337 344
226 224 224 229 230 230 234 237 235 230 232 231 231 232 232 231 232 235 237 235 240 245 249 255 261 266 275 275 280 293 309 321 331
225 224 221 223 227 231 232 239 237 231 232 232 231 232 231 230 232 234 236 237 237 243 248 253 259 261 267 266 270 273 294 308 317
226 225 223 223 227 231 233 237 242 238 235 234 233 232 230 234 234 235 236 238 237 241 246 251 255 258 264 267 267 278 281 297 308
224 223 227 224 227 233 233 234 239 240 236 235 234 232 230 230 236 235 234 234 236 241 243 247 252 255 260 265 272 280 282 289 298
Height
10859 10861 10861 10862 10861 10860 10860 10860 10862 10863 10864 10864 10865 10865 10865 10866 10865 10864 10863 10861 10860 10858 10857 10855 10852 10849 10844 10838 10830 10823 10815 10807 10798
10853 10854 10855 10856 10856 10854 10857 10857 10858 10861 10861 10862 10862 10863 10863 10864 10863 10863 10862 10861 10860 10859 10858 10856 10853 10849 10845 10840 10832 10825 10818 10810 10802
10849 10849 10849 10851 10850 10851 10853 10853 10855 10857 10858 10860 10860 10860 10860 10861 10862 10862 10861 10860 10859 10859 10858 10857 10854 10850 10846 10841 10835 10827 10821 10813 10806
10840 10842 10843 10844 10846 10845 10849 10850 10852 10853 10855 10857 10857 10858 10858 10859 10859 10860 10860 10859 10859 10858 10857 10856 10854 10851 10846 10843 10838 10830 10824 10816 10809
10834 10836 10837 10838 10841 10839 10843 10846 10848 10849 10853 10854 10854 10855 10855 10857 10857 10858 10858 10858 10857 10857 10857 10855 10853 10851 10847 10844 10839 10833 10827 10819 10812
10826 10829 10830 10831 10834 10835 10837 10841 10843 10846 10848 10850 10851 10852 10853 10855 10856 10856 10856 10857 10857 10856 10856 10854 10853 10850 10847 10844 10840 10836 10829 10822 10815
10818 10821 10824 10826 10828 10830 10833 10836 10838 10841 10842 10846 10848 10849 10851 10853 10853 10854 10854 10855 10856 10855 10855 10853 10852 10850 10847 10844 10842 10838 10832 10825 10818
10809 10813 10817 10820 10822 10823 10828 10830 10832 10835 10837 10841 10845 10847 10849 10850 10851 10852 10852 10853 10854 10854 10854 10853 10852 10849 10847 10845 10842 10838 10833 10828 10822
10800 10805 10809 10812 10816 10817 10823 10825 10826 10829 10831 10837 10841 10843 10846 10847 10848 10849 10850 10851 10852 10853 10853 10852 10851 10849 10848 10845 10843 10839 10835 10830 10825
10790 10797 10801 10805 10809 10811 10815 10819 10821 10823 10826 10831 10835 10838 10841 10843 10845 10846 10847 10848 10850 10851 10852 10851 10851 10849 10847 10845 10843 10840 10836 10832 10827
10779 10786 10792 10797 10801 10804 10807 10813 10815 10817 10820 10825 10830 10834 10837 10839 10841 10842 10844 10845 10847 10848 10849 10849 10849 10848 10846 10845 10843 10840 10837 10833 10829
10767 10776 10782 10787 10793 10797 10799 10805 10808 10810 10814 10819 10824 10828 10832 10835 10837 10838 10840 10842 10843 10844 10846 10847 10846 10846 10845 10844 10842 10840 10837 10834 10830
10756 10765 10772 10778 10784 10789 10791 10797 10801 10804 10808 10813 10818 10823 10827 10830 10833 10834 10836 10839 10839 10840 10842 10844 10844 10844 10843 10843 10842 10840 10837 10835 10831
10746 10754 10762 10769 10775 10781 10783 10788 10793 10797 10802 10807 10812 10817 10822 10824 10828 10831 10832 10834 10836 10836 10838 10840 10841 10841 10840 10840 10840 10838 10837 10835 10832
10735 10745 10751 10759 10765 10772 10775 10781 10785 10790 10796 10800 10805 10810 10815 10819 10823 10826 10828 10830 10832 10833 10834 10836 10837 10838 10839 10838 10838 10836 10835 10834 10832
10724 10734 10741 10749 10756 10761 10767 10773 10777 10783 10787 10792 10797 10803 10808 10813 10817 10820 10822 10825 10827 10828 10830 10831 10833 10834 10835 10835 10834 10834 10833 10831 10830
10715 10722 10731 10738 10746 10752 10759 10763 10769 10774 10779 10784 10790 10797 10801 10805 10809 10813 10816 10819 10821 10823 10825 10826 10828 10829 10830 10831 10832 10831 10830 10829 10827
10704 10711 10721 10728 10735 10742 10749 10754 10759 10764 10770 10775 10782 10787 10791 10797 10802 10805 10809 10812 10815 10817 10819 10821 10822 10824 10826 10826 10828 10828 10827 10827 10825
10692 10699 10709 10717 10725 10733 10738 10746 10750 10757 10761 10767 10773 10778 10784 10789 10794 10798 10802 10805 10808 10811 10813 10815 10817 10818 10820 10822 10822 10824 10824 10824 10823
10681 10687 10697 10707 10715 10722 10729 10736 10740 10745 10752 10758 10762 10768 10776 10780 10784 10788 10792 10796 10801 10804 10806 10808 10811 10813 10815 10816 10817 10818 10819 10819 10819